Overview Statistics Trail Chart Weather Telemetry Raw packets
 

This is the latest recevied weather packets stored in our database for station/object KD7CIH. If no packets are shown the sender has not sent any weather packets the latest 10 day(s).

<< 81 82 83 84 85 86 87 >>
Time Temp. Humidity Pressure Rain* Wind** Luminosity Snow
1788110947 15° C 74% 1015.7 hPa 0 mm - - -
1788110648 15° C 74% 1015.7 hPa 0 mm - - -
1788110346 14.44° C 75% 1015.8 hPa 0 mm - - -
1788110048 14.44° C 75% 1015.9 hPa 0 mm - - -
1788109746 14.44° C 77% 1015.9 hPa 0 mm - - -
1788109448 14.44° C 77% 1016.1 hPa 0 mm - - -
1788109147 14.44° C 76% 1016.1 hPa 0 mm - - -
1788108848 14.44° C 76% 1016.1 hPa 0 mm - - -
1788108546 14.44° C 76% 1016.3 hPa 0 mm - - -
1788108248 14.44° C 75% 1016.1 hPa 0 mm - - -
1788107945 14.44° C 75% 1016.3 hPa 0 mm - - -
1788107647 14.44° C 75% 1016.1 hPa 0 mm - - -
1788107345 14.44° C 76% 1016.1 hPa 0 mm - - -
1788107045 14.44° C 77% 1016.1 hPa 0 mm - - -
1788106747 14.44° C 78% 1016 hPa 0 mm - - -
1788106575 14.44° C 77% 1016 hPa 0 mm - - -
1788106147 14.44° C 77% 1015.9 hPa 0 mm - - -
1788105842 14.44° C 77% 1015.8 hPa 0 mm - - -
1788105538 14.44° C 77% 1015.8 hPa 0 mm - - -
1788105230 14.44° C 77% 1015.9 hPa 0 mm - - -
1788105051 14.44° C 74% 1016 hPa 0 mm - - -
1788104619 14.44° C 74% 1015.9 hPa 0 mm - - -
1788104314 14.44° C 73% 1016.1 hPa 0 mm - - -
1788104014 14.44° C 73% 1016.5 hPa 0 mm - - -
1788103715 13.89° C 77% 1016.4 hPa 0 mm - - -

* Rain latest hour (hover to see other rain measurements)
** Current wind speed in m/s (hover to see current wind gust speed)